Location: Drocourt
(49.0571°N, 1.7669°E)
Time: 15:47:22
(UTC+00:00)

Vanguard 3 - Pass Details

Date: 16 April 2024
Orbit: 509 x 3233 km, 33.3° (Epoch: 23 May)

Event Time Altitude Azimuth Distance (km) Brightness Sun altitude
Rises 04:00:03 0° 210° (SSW) 5,975 - -9.8°
Exits shadow 04:00:33 - 209° (SSW) 5,848 11.0 -9.7°
Reaches altitude 10° 04:06:51 10° 191° (S) 4,312 10.5 -8.8°
Maximum altitude 04:11:58 14° 163° (SSE) 3,417 10.2 -8.0°
Drops below altitude 10° 04:16:03 10° 134° (SE) 3,284 10.5 -7.4°
Sets 04:19:57 0° 110° (ESE) 3,786 11.4 -6.8°
